Погода в Девонпорте

Австралия     41°10′47″S   146°22′11″E
темп.,
°C
ветер,
м/с
пор.,
м/с
влажн.,
%
обл.,
%
осадки,
мм/ч
давл.,
гПа
погр.,
м
27 февраля, сб
сб2723:00+12ююв49800 0.0 1015282
02:00+11ююв37885 0.0 1015279
05:00+10ююв369236 0.0 1014213
08:00+11ююв2485100 0.0 1015181
11:00+17вюв1260100 0.0 1015696
14:00+18с4465100 0.0 1013641
17:00+17сз3572100 0.0 1012586
20:00+15сз2385100 0.0 1014162
28 февраля, вс
вс2823:00+14ююз1190100 0.0 101497
02:00+13в0293100 0.0 1014206
05:00+13ю119490 0.1 101492
08:00+13ююз119138 0.0 101361
11:00+18с226819 0.0 1014723
14:00+19с346510 0.0 1012650
17:00+18ссз456847 0.0 1010612
20:00+14сз1288100 0.0 1010135
1 марта, пн
пн123:00+13юз119272 0.0 101169
02:00+12ююз119589 0.0 101046
05:00+12юз129492 0.0 100957
08:00+12юз128353 0.0 100992
11:00+19з375227 0.0 10091370
14:00+16зюз5105658 0.1 10091481
17:00+15юз6115135 0.1 10091708
20:00+10юз411630 0.0 10111533
2 марта, вт
вт223:00+7зюз25753 0.0 1014490
02:00+6зюз25760 0.0 1014472
05:00+6з35772 0.0 1014488
08:00+7зюз247316 0.0 1016481
11:00+13юз474623 0.0 10171472
14:00+15юз46421 0.0 10161676
17:00+14юз46454 0.0 10151748
20:00+10юз375829 0.0 1017784
3 марта, ср
ср323:00+7юз367527 0.0 1019288
02:00+5юз22860 0.0 101884
05:00+5ююз23871 0.0 101894
08:00+7ююз228145 0.0 1019109
11:00+14з044963 0.0 10191162
14:00+15зюз3550100 0.0 10181519
17:00+17юз364680 0.0 10171549
20:00+13зюз486339 0.0 1018384